CW0210 Weather Reports


Display with metric or nautical units.
time (UTC)temp
F
wind
direction
speed
MPH
gust
MPH
rain 1hr
in
rain 24hr
in
rain mn
in
humidity
%
barometer
mb
20260507191526 67 252 2.0 0.0 0.00 0.00 0.11 30 1003.0
20260507190039 67 260 2.0 0.0 0.00 0.00 0.11 29 1003.1
20260507184532 67 292 3.0 0.0 0.00 0.00 0.11 31 1003.3
20260507183021 67 42 1.0 0.0 0.00 0.00 0.11 34 1003.3
20260507181519 66 259 3.0 0.0 0.00 0.00 0.11 35 1003.5
20260507180019 66 305 3.0 0.0 0.00 0.00 0.11 36 1003.6
20260507174514 65 235 2.0 0.0 0.00 0.00 0.11 39 1003.6
20260507173033 65 348 3.0 0.0 0.00 0.00 0.11 39 1003.6
20260507171510 64 301 2.0 0.0 0.00 0.00 0.11 45 1003.7
20260507170016 63 333 2.0 0.0 0.00 0.00 0.11 46 1003.9
20260507164503 62 269 2.0 0.0 0.00 0.00 0.11 52 1004.0
20260507163102 61 238 2.0 0.0 0.00 0.00 0.11 56 1004.1
20260507161603 60 279 1.0 0.0 0.00 0.00 0.11 56 1004.3
20260507160056 59 250 2.0 0.0 0.00 0.00 0.11 59 1004.5
20260507154559 59 259 1.0 0.0 0.00 0.00 0.11 59 1004.6
20260507153057 60 284 1.0 0.0 0.00 0.00 0.11 59 1004.7
20260507151554 59 228 1.0 0.0 0.00 0.00 0.11 59 1004.8
20260507150054 58 263 0.0 0.0 0.00 0.00 0.11 60 1005.0
20260507144554 57 336 2.0 0.0 0.00 0.00 0.11 59 1005.2
20260507143100 57 257 2.0 0.0 0.00 0.00 0.11 58 1005.1
20260507141551 56 253 1.0 0.0 0.00 0.00 0.11 61 1005.3
20260507140051 55 303 2.0 0.0 0.00 0.00 0.11 64 1005.4
20260507134550 54 259 2.0 0.0 0.00 0.00 0.11 66 1005.4
20260507133051 53 291 1.0 0.0 0.00 0.00 0.11 72 1005.3
20260507131545 52 259 1.0 0.0 0.00 0.00 0.11 77 1005.6
20260507130046 51 283 1.0 0.0 0.00 0.00 0.11 83 1005.5
20260507124547 51 278 1.0 0.0 0.00 0.00 0.11 87 1005.8
20260507123043 50 249 0.0 0.0 0.00 0.00 0.11 89 1005.8
20260507121542 50 248 1.0 0.0 0.00 0.00 0.11 91 1005.7
20260507120040 49 220 0.0 0.0 0.00 0.00 0.11 92 1005.5
20260507114556 49 238 0.0 0.0 0.00 0.00 0.11 92 1005.6
20260507113101 49 237 0.0 0.0 0.00 0.00 0.11 92 1005.4
20260507111542 49 252 0.0 0.0 0.00 0.00 0.11 92 1005.4
20260507110039 49 252 0.0 0.0 0.00 0.00 0.11 92 1005.1
20260507104541 49 253 0.0 0.0 0.00 0.00 0.11 92 1005.6
20260507103037 49 253 0.0 0.0 0.00 0.00 0.11 91 1005.6
20260507101534 49 253 0.0 0.0 0.00 0.00 0.11 91 1005.1
20260507100032 49 253 0.0 0.0 0.00 0.00 0.11 90 1004.9
20260507094533 50 232 0.0 0.0 0.00 0.00 0.10 90 1004.8
20260507093033 50 290 1.0 0.0 0.00 0.00 0.08 90 1004.7
20260507091525 51 269 0.0 0.0 0.00 0.00 0.06 89 1004.7
20260507090023 51 259 0.0 0.0 0.00 0.00 0.03 89 1004.9
20260507084525 52 258 0.0 0.0 0.00 0.00 0.03 88 1005.0
20260507083018 52 237 0.0 0.0 0.00 0.00 0.03 88 1004.6
20260507081525 53 241 0.0 0.0 0.00 0.00 0.02 88 1004.2
20260507080014 53 269 0.0 0.0 0.00 0.00 0.01 87 1004.5
20260507074513 54 290 1.0 0.0 0.00 0.00 0.01 85 1004.4
20260507073010 54 255 0.0 0.0 0.00 0.00 0.00 84 1004.1
20260507071511 54 257 0.0 0.0 0.00 0.00 0.00 83 1003.8
20260507070012 54 327 1.0 0.0 0.00 0.00 0.00 83 1003.7
20260507064505 55 290 1.0 0.0 0.00 0.00 0.00 87 1003.8
20260507063003 56 306 2.0 0.0 0.00 0.00 0.00 88 1003.8
20260507061502 56 302 1.0 0.0 0.00 0.00 0.00 88 1003.4
20260507060103 56 282 2.0 0.0 0.00 0.00 0.00 89 1003.9
20260507054559 57 295 2.0 0.0 0.00 0.00 0.00 89 1004.0
20260507053055 57 288 1.0 0.0 0.00 0.00 0.00 92 1004.1
20260507051553 58 251 1.0 0.0 0.00 0.00 0.00 91 1003.7
20260507050049 59 254 2.0 0.0 0.00 0.00 0.00 92 1003.8
20260507044604 59 284 1.0 0.0 0.00 0.00 0.00 93 1003.7
20260507043100 60 277 0.0 0.0 0.00 0.00 0.00 93 1003.6
20260507041544 60 245 0.0 0.0 0.00 0.00 0.00 93 1003.7
20260507040042 60 218 0.0 0.0 0.00 0.00 0.00 93 1004.0
20260507034542 60 236 0.0 0.0 0.00 0.00 0.04 93 1003.9
20260507033040 60 204 1.0 0.0 0.00 0.00 0.04 93 1003.8
20260507031545 60 232 1.0 0.0 0.00 0.00 0.04 93 1003.4
20260507030041 59 222 1.0 0.0 0.00 0.00 0.04 93 1003.1
20260507024539 59 261 1.0 0.0 0.00 0.00 0.04 93 1003.4
20260507023037 59 272 1.0 0.0 0.00 0.00 0.04 93 1003.4
20260507021539 59 223 0.0 0.0 0.00 0.00 0.04 93 1003.4
20260507020048 59 238 0.0 0.0 0.00 0.00 0.04 93 1003.3
20260507014536 59 207 1.0 0.0 0.00 0.00 0.04 93 1003.4
20260507013034 58 218 0.0 0.0 0.00 0.00 0.04 93 1003.6
20260507011543 58 216 1.0 0.0 0.00 0.00 0.04 93 1003.7
20260507010036 58 224 1.0 0.0 0.00 0.00 0.04 92 1003.8
20260507004533 58 212 0.0 0.0 0.00 0.00 0.04 92 1003.8
20260507003031 58 231 0.0 0.0 0.00 0.00 0.04 92 1003.8
20260507001602 58 239 1.0 0.0 0.00 0.00 0.04 92 1003.7
20260507000035 59 196 1.0 0.0 0.00 0.00 0.04 92 1003.6
20260506234528 59 206 0.0 0.0 0.00 0.00 0.03 91 1003.6
20260506233026 60 238 0.0 0.0 0.00 0.00 0.03 91 1003.5
20260506231525 60 270 0.0 0.0 0.00 0.00 0.02 90 1003.5
20260506230033 60 269 0.0 0.0 0.00 0.00 0.02 90 1003.4
20260506224522 61 203 1.0 0.0 0.00 0.00 0.02 92 1003.7
20260506223028 61 196 0.0 0.0 0.00 0.00 0.02 89 1003.8
20260506221519 62 227 0.0 0.0 0.00 0.00 0.02 89 1003.9
20260506220018 62 254 0.0 0.0 0.00 0.00 0.01 88 1004.1
20260506214516 63 180 0.0 0.0 0.00 0.00 0.01 87 1004.3
20260506213017 63 199 1.0 0.0 0.00 0.00 0.01 87 1004.3
20260506211520 63 229 1.0 0.0 0.00 0.00 0.01 86 1004.3
20260506210029 63 234 1.0 0.0 0.00 0.00 0.01 85 1004.4
20260506204514 63 289 1.0 0.0 0.00 0.00 0.01 84 1004.7
20260506203013 64 209 1.0 0.0 0.00 0.00 0.01 82 1004.7
20260506201519 64 213 1.0 0.0 0.00 0.00 0.01 82 1004.4
20260506200012 65 254 0.0 0.0 0.00 0.00 0.01 81 1004.3
20260506194510 66 216 0.0 0.0 0.00 0.00 0.01 79 1004.7
20260506193018 67 177 1.0 0.0 0.00 0.00 0.00 75 1004.8